Back to catalog

STARLINK-34752

AliveCommunicationsVLEO
NORAD 66153·PAYLOAD·🇺🇸 United States

Launched Oct 25, 2025 from Cape Canaveral Space Force Station

Loading…

Next Passes (next 24 hours)

TLE

FreshSource: CelesTrak SupGP

Epoch: Sep 14, 2026, 14:42 UTC

1 66153C 25240H   26257.61298611 -.00018537  00000+0 -54785-3 0  2574
2 66153  53.1569 261.4595 0001640  77.1666  58.9945 15.34390374    18

Track STARLINK-34752 in real time with AllMySat

Download on the App Store